• In Uzbekistan
  • List of Countries
  • For 7 days
  • Water Temperature
  • Satellite Maps
  • Weather Map
  • Weather Widgets
  • user-avatar
    Login

    Hourly Weather Sidi Bu-l-Abbas

    Today, 17 January, Tuesday

    Time Temperature Precipitation Wind Pressure Humidity
    00:00 +7°C° 0 mm 4 mps 722 mmHg 67%
    01:00 +6°C° 0 mm 4 mps 721 mmHg 68%
    02:00 +6°C° 0 mm 4 mps 721 mmHg 69%
    03:00 +6°C° 0 mm 4 mps 721 mmHg 71%
    04:00 +6°C° 0 mm 4 mps 720 mmHg 69%
    05:00 +6°C° 0 mm 4 mps 720 mmHg 68%
    06:00 +6°C° 0 mm 4 mps 720 mmHg 67%
    07:00 +7°C° 0 mm 5 mps 720 mmHg 65%
    08:00 +8°C° 0 mm 6 mps 720 mmHg 62%
    09:00 +9°C° 0 mm 6 mps 720 mmHg 60%
    10:00 +9°C° 0.3 mm 7 mps 720 mmHg 60%
    11:00 +10°C° 0.3 mm 7 mps 720 mmHg 59%
    12:00 +11°C° 0.3 mm 8 mps 720 mmHg 59%
    13:00 +10°C° 0.3 mm 7 mps 719 mmHg 62%
    14:00 +10°C° 0.3 mm 6 mps 719 mmHg 65%
    15:00 +9°C° 0.3 mm 5 mps 719 mmHg 68%
    16:00 +8°C° 0.1 mm 4 mps 719 mmHg 74%
    17:00 +7°C° 0.1 mm 4 mps 719 mmHg 80%
    18:00 +7°C° 0.1 mm 3 mps 719 mmHg 86%
    19:00 +5°C° 0.1 mm 3 mps 719 mmHg 87%
    20:00 +5°C° 0.1 mm 3 mps 719 mmHg 87%
    21:00 +6°C° 0.1 mm 2 mps 719 mmHg 87%
    22:00 +5°C° 0.1 mm 3 mps 719 mmHg 86%
    23:00 +4°C° 0.1 mm 3 mps 719 mmHg 84%

    Tomorrow, 18 January, Wednesday

    Time Temperature Precipitation Wind Pressure Humidity
    00:00 +4°C° 0.1 mm 3 mps 719 mmHg 83%
    01:00 +5°C° 0.1 mm 2 mps 719 mmHg 81%
    02:00 +5°C° 0.1 mm 2 mps 719 mmHg 79%
    03:00 +4°C° 0.1 mm 2 mps 719 mmHg 77%
    04:00 +4°C° 0 mm 2 mps 719 mmHg 77%
    05:00 +4°C° 0 mm 2 mps 719 mmHg 77%
    06:00 +3°C° 0 mm 2 mps 719 mmHg 77%
    07:00 +3°C° 0.1 mm 3 mps 719 mmHg 74%
    08:00 +3°C° 0.1 mm 3 mps 719 mmHg 71%
    09:00 +4°C° 0.1 mm 3 mps 720 mmHg 68%
    10:00 +4°C° 0.2 mm 3 mps 720 mmHg 66%
    11:00 +5°C° 0.2 mm 4 mps 719 mmHg 63%
    12:00 +5°C° 0.2 mm 4 mps 719 mmHg 61%
    13:00 +5°C° 0.1 mm 4 mps 719 mmHg 61%
    14:00 +5°C° 0.1 mm 4 mps 718 mmHg 60%
    15:00 +5°C° 0.1 mm 4 mps 718 mmHg 60%
    16:00 +5°C° 0.3 mm 4 mps 718 mmHg 63%
    17:00 +4°C° 0.3 mm 4 mps 718 mmHg 67%
    18:00 +3°C° 0.3 mm 4 mps 717 mmHg 71%
    19:00 +3°C° 1.1 mm 4 mps 717 mmHg 73%
    20:00 +3°C° 1.1 mm 4 mps 717 mmHg 76%
    21:00 +3°C° 1.1 mm 4 mps 717 mmHg 78%
    22:00 +3°C° 1.1 mm 4 mps 717 mmHg 81%
    23:00 +3°C° 1.1 mm 4 mps 717 mmHg 84%

    Day after tomorrow, 19 January, Thursday

    Time Temperature Precipitation Wind Pressure Humidity
    00:00 +1°C° 1.1 mm 4 mps 717 mmHg 86%
    01:00 +2°C° 0.1 mm 3 mps 716 mmHg 87%
    02:00 +2°C° 0.1 mm 3 mps 716 mmHg 87%
    03:00 +2°C° 0.1 mm 3 mps 715 mmHg 88%
    04:00 +2°C° 0.1 mm 3 mps 715 mmHg 87%
    05:00 +3°C° 0.1 mm 2 mps 715 mmHg 87%
    06:00 +3°C° 0.1 mm 2 mps 714 mmHg 87%
    07:00 +4°C° 0 mm 2 mps 715 mmHg 85%
    08:00 +5°C° 0 mm 2 mps 715 mmHg 83%
    09:00 +5°C° 0 mm 2 mps 715 mmHg 82%
    10:00 +6°C° 0 mm 2 mps 715 mmHg 78%
    11:00 +7°C° 0 mm 2 mps 715 mmHg 74%
    12:00 +8°C° 0 mm 2 mps 715 mmHg 70%
    13:00 +8°C° 0.1 mm 2 mps 715 mmHg 69%
    14:00 +8°C° 0.1 mm 2 mps 715 mmHg 68%
    15:00 +8°C° 0.1 mm 2 mps 715 mmHg 67%
    16:00 +7°C° 0.2 mm 2 mps 715 mmHg 71%
    17:00 +6°C° 0.2 mm 2 mps 715 mmHg 76%
    18:00 +5°C° 0.2 mm 2 mps 715 mmHg 80%
    19:00 +5°C° 0.1 mm 2 mps 715 mmHg 80%
    20:00 +5°C° 0.1 mm 2 mps 716 mmHg 80%
    21:00 +5°C° 0.1 mm 2 mps 716 mmHg 80%
    22:00 +4°C° 0.1 mm 2 mps 716 mmHg 80%
    23:00 +4°C° 0.1 mm 2 mps 716 mmHg 80%

    20 January, Friday

    Time Temperature Precipitation Wind Pressure Humidity
    00:00 +4°C° 0.1 mm 2 mps 716 mmHg 81%
    01:00 +4°C° 0.1 mm 2 mps 716 mmHg 81%
    02:00 +4°C° 0.1 mm 2 mps 716 mmHg 81%
    03:00 +5°C° 0.1 mm 1 mps 715 mmHg 82%
    04:00 +5°C° 0.1 mm 1 mps 715 mmHg 82%
    05:00 +5°C° 0.1 mm 1 mps 716 mmHg 82%
    06:00 +4°C° 0.1 mm 1 mps 716 mmHg 83%
    07:00 +5°C° 0.1 mm 1 mps 716 mmHg 80%
    08:00 +5°C° 0.1 mm 2 mps 716 mmHg 77%
    09:00 +5°C° 0.1 mm 2 mps 717 mmHg 74%
    10:00 +6°C° 0.1 mm 2 mps 717 mmHg 72%
    11:00 +7°C° 0.1 mm 2 mps 717 mmHg 71%
    12:00 +7°C° 0.1 mm 2 mps 717 mmHg 69%
    13:00 +7°C° 0.3 mm 2 mps 717 mmHg 72%
    14:00 +7°C° 0.3 mm 3 mps 717 mmHg 75%
    15:00 +7°C° 0.3 mm 3 mps 717 mmHg 78%
    16:00 +6°C° 0.4 mm 2 mps 717 mmHg 82%
    17:00 +5°C° 0.4 mm 2 mps 717 mmHg 85%
    18:00 +5°C° 0.4 mm 2 mps 718 mmHg 89%
    19:00 +5°C° 0.2 mm 2 mps 718 mmHg 89%
    20:00 +4°C° 0.2 mm 2 mps 718 mmHg 89%
    21:00 +4°C° 0.2 mm 2 mps 719 mmHg 89%
    22:00 +4°C° 0 mm 2 mps 719 mmHg 90%
    23:00 +4°C° 0 mm 2 mps 719 mmHg 90%

    21 January, Saturday

    Time Temperature Precipitation Wind Pressure Humidity
    00:00 +4°C° 0 mm 2 mps 719 mmHg 91%
    01:00 +4°C° 0 mm 2 mps 719 mmHg 92%
    02:00 +4°C° 0 mm 2 mps 719 mmHg 93%
    03:00 +4°C° 0 mm 2 mps 719 mmHg 93%
    04:00 +3°C° 0.2 mm 3 mps 719 mmHg 93%
    05:00 +3°C° 0.2 mm 3 mps 720 mmHg 93%
    06:00 +3°C° 0.2 mm 3 mps 720 mmHg 93%
    07:00 +4°C° 0.3 mm 3 mps 720 mmHg 91%
    08:00 +5°C° 0.3 mm 4 mps 721 mmHg 88%
    09:00 +6°C° 0.3 mm 4 mps 721 mmHg 86%
    10:00 +6°C° 0.3 mm 5 mps 721 mmHg 82%
    11:00 +7°C° 0.3 mm 5 mps 721 mmHg 78%
    12:00 +8°C° 0.3 mm 6 mps 721 mmHg 74%
    13:00 +8°C° 0.2 mm 6 mps 721 mmHg 75%
    14:00 +8°C° 0.2 mm 6 mps 721 mmHg 76%
    15:00 +8°C° 0.2 mm 5 mps 721 mmHg 77%
    16:00 +7°C° 0.2 mm 4 mps 721 mmHg 81%
    17:00 +7°C° 0.2 mm 3 mps 721 mmHg 86%
    18:00 +6°C° 0.2 mm 2 mps 722 mmHg 90%
    19:00 +6°C° 0.1 mm 2 mps 722 mmHg 91%
    20:00 +5°C° 0.1 mm 2 mps 723 mmHg 91%
    21:00 +5°C° 0.1 mm 2 mps 723 mmHg 92%
    22:00 +5°C° 0 mm 2 mps 723 mmHg 92%
    23:00 +5°C° 0 mm 2 mps 723 mmHg 92%

    22 January, Sunday

    Time Temperature Precipitation Wind Pressure Humidity
    00:00 +5°C° 0 mm 2 mps 723 mmHg 92%
    01:00 +4°C° 0 mm 3 mps 723 mmHg 92%
    02:00 +3°C° 0 mm 3 mps 723 mmHg 92%
    03:00 +3°C° 0 mm 3 mps 723 mmHg 92%
    04:00 +3°C° 0 mm 3 mps 724 mmHg 91%
    05:00 +3°C° 0 mm 3 mps 724 mmHg 91%
    06:00 +3°C° 0 mm 3 mps 724 mmHg 90%
    07:00 +4°C° 0 mm 3 mps 724 mmHg 86%
    08:00 +5°C° 0 mm 3 mps 725 mmHg 82%
    09:00 +8°C° 0 mm 3 mps 725 mmHg 78%
    10:00 +8°C° 0.1 mm 4 mps 725 mmHg 75%
    11:00 +9°C° 0.1 mm 5 mps 725 mmHg 71%
    12:00 +9°C° 0.1 mm 5 mps 725 mmHg 67%
    13:00 +10°C° 0.1 mm 5 mps 725 mmHg 66%
    14:00 +10°C° 0.1 mm 6 mps 725 mmHg 65%
    15:00 +10°C° 0.1 mm 6 mps 724 mmHg 64%
    16:00 +8°C° 0 mm 5 mps 724 mmHg 69%
    17:00 +7°C° 0 mm 5 mps 724 mmHg 74%
    18:00 +5°C° 0 mm 4 mps 724 mmHg 79%
    19:00 +5°C° 0 mm 4 mps 725 mmHg 80%
    20:00 +5°C° 0 mm 4 mps 725 mmHg 81%
    21:00 +5°C° 0 mm 4 mps 725 mmHg 81%
    22:00 +5°C° 0 mm 4 mps 725 mmHg 81%
    23:00 +5°C° 0 mm 5 mps 725 mmHg 81%
    Show more